KD4PYR Weather Reports


time (UTC)temp
C
wind
direction
speed
KPH
gust
KPH
rain 1hr
cm
rain 24hr
cm
rain mn
cm
humidity
%
barometer
mb
20260507155833 12 323 9.7 19.3 0.00 0.00 0.00 43 1013.6
20260507154836 12 277 9.7 19.3 0.00 0.00 0.00 44 1013.5
20260507153829 12 300 9.7 19.3 0.00 0.00 0.00 47 1013.7
20260507152823 11 294 14.5 24.1 0.00 0.00 0.00 46 1013.5
20260507151816 11 307 6.4 17.7 0.00 0.00 0.00 48 1013.4
20260507150833 11 296 12.9 19.3 0.00 0.00 0.00 48 1013.2
20260507145833 11 335 6.4 14.5 0.00 0.00 0.00 51 1013.4
20260507144816 11 291 6.4 16.1 0.00 0.00 0.00 51 1013.5
20260507143834 10 282 6.4 16.1 0.00 0.00 0.00 52 1013.5
20260507142825 10 282 8.0 19.3 0.00 0.00 0.00 51 1013.5
20260507141844 10 360 11.3 20.9 0.00 0.00 0.00 51 1013.5
20260507140839 10 298 6.4 17.7 0.00 0.00 0.00 50 1013.6
20260507135822 10 334 6.4 17.7 0.00 0.00 0.00 51 1013.7
20260507134827 9 334 6.4 20.9 0.00 0.00 0.00 51 1013.6
20260507133905 9 302 9.7 19.3 0.00 0.00 0.00 51 1013.5
20260507132833 9 348 6.4 20.9 0.00 0.00 0.00 55 1013.5
20260507131824 8 287 3.2 12.9 0.00 0.00 0.00 62 1013.6
20260507130841 8 294 6.4 12.9 0.00 0.00 0.00 63 1013.6
20260507125845 8 312 4.8 12.9 0.00 0.00 0.00 67 1013.5
20260507124846 7 323 3.2 8.0 0.00 0.00 0.00 69 1013.4
20260507123837 7 327 1.6 8.0 0.00 0.00 0.00 72 1013.5
20260507122826 7 317 3.2 8.0 0.00 0.00 0.00 73 1013.6
20260507121843 6 355 1.6 9.7 0.00 0.00 0.00 75 1013.7
20260507120835 6 335 3.2 8.0 0.00 0.00 0.00 76 1013.7
20260507115822 6 331 1.6 8.0 0.00 0.00 0.00 77 1013.5
20260507114826 5 278 3.2 6.4 0.00 0.00 0.00 78 1013.7
20260507113845 5 288 3.2 4.8 0.00 0.00 0.00 79 1013.7
20260507112836 5 288 1.6 4.8 0.00 0.00 0.00 80 1013.7
20260507111830 5 289 3.2 4.8 0.00 0.00 0.00 80 1013.5
20260507110848 5 289 1.6 4.8 0.00 0.00 0.00 80 1013.3
20260507105833 5 289 1.6 3.2 0.00 0.00 0.00 80 1013.1
20260507104901 5 289 0.0 1.6 0.00 0.00 0.00 80 1012.9
20260507103832 5 289 0.0 3.2 0.00 0.00 0.00 80 1012.9
20260507102825 5 289 0.0 1.6 0.00 0.00 0.00 80 1012.9
20260507101843 5 289 0.0 3.2 0.00 0.00 0.00 80 1013.0
20260507100901 5 289 1.6 3.2 0.00 0.00 0.00 80 1012.9
20260507095826 5 289 1.6 4.8 0.00 0.03 0.00 80 1012.9
20260507094851 5 289 1.6 6.4 0.00 0.03 0.00 80 1012.9
20260507093824 5 299 3.2 6.4 0.00 0.03 0.00 80 1012.9
20260507092843 5 271 3.2 6.4 0.00 0.03 0.00 80 1012.9
20260507091836 5 281 3.2 6.4 0.00 0.03 0.00 80 1012.8
20260507090853 5 283 1.6 6.4 0.00 0.03 0.00 81 1012.7
20260507085815 5 281 1.6 4.8 0.00 0.15 0.00 81 1012.7
20260507084838 5 281 1.6 4.8 0.00 0.15 0.00 82 1012.6
20260507083831 5 284 0.0 1.6 0.00 0.15 0.00 82 1012.6
20260507082847 5 284 0.0 0.0 0.00 0.15 0.00 82 1012.4
20260507081839 5 284 0.0 1.6 0.00 0.15 0.00 82 1012.4
20260507080830 5 284 0.0 1.6 0.00 0.15 0.00 82 1012.4
20260507075833 5 284 0.0 0.0 0.00 0.41 0.00 82 1012.5
20260507074838 5 284 0.0 0.0 0.00 0.41 0.00 81 1012.4
20260507073829 5 284 0.0 0.0 0.00 0.41 0.00 81 1012.4
20260507072822 5 284 0.0 0.0 0.00 0.41 0.00 81 1012.4
20260507071902 5 284 0.0 0.0 0.00 0.41 0.00 80 1012.5
20260507070900 6 284 0.0 0.0 0.00 0.41 0.00 80 1012.5
20260507065851 6 284 0.0 1.6 0.00 0.69 0.00 80 1012.5
20260507064831 6 284 0.0 1.6 0.00 0.69 0.00 80 1012.4
20260507063823 6 284 0.0 1.6 0.00 0.69 0.00 80 1012.5
20260507062844 6 284 1.6 3.2 0.00 0.69 0.00 81 1012.6
20260507061839 6 284 1.6 3.2 0.00 0.69 0.00 81 1012.6
20260507060829 6 284 0.0 1.6 0.00 0.69 0.00 82 1012.6
20260507055814 6 284 0.0 0.0 0.00 0.91 0.00 82 1012.6
20260507054838 6 284 0.0 0.0 0.00 0.91 0.00 82 1012.6
20260507053831 6 284 0.0 0.0 0.00 0.91 0.00 82 1012.6
20260507052827 6 283 0.0 0.0 0.00 0.91 0.00 82 1012.7
20260507051901 6 284 0.0 0.0 0.00 0.91 0.00 81 1012.7
20260507050836 6 284 0.0 0.0 0.00 0.91 0.00 81 1012.5
20260507045840 6 284 0.0 0.0 0.00 1.09 0.00 82 1012.7
20260507044842 6 284 0.0 0.0 0.00 1.09 0.00 81 1012.6
20260507043814 7 284 0.0 0.0 0.00 1.09 0.00 81 1012.7
20260507042831 7 284 0.0 0.0 0.00 1.09 0.00 81 1012.8
20260507041852 7 284 0.0 0.0 0.00 1.09 0.00 81 1012.7
20260507040849 7 284 0.0 0.0 0.00 1.09 0.00 81 1012.8
20260507035848 7 284 0.0 0.0 0.00 1.27 1.09 80 1012.7
20260507034830 7 284 0.0 0.0 0.00 1.27 1.09 80 1012.6
20260507033847 7 283 0.0 0.0 0.00 1.27 1.09 80 1012.6
20260507032816 7 284 0.0 0.0 0.00 1.27 1.09 80 1012.8
20260507031854 8 284 0.0 0.0 0.00 1.27 1.09 79 1012.7
20260507030824 8 284 0.0 0.0 0.00 1.27 1.09 79 1012.8
20260507025829 8 283 0.0 0.0 0.00 1.55 1.09 78 1012.7
20260507024853 8 284 0.0 0.0 0.00 1.55 1.09 78 1012.7
20260507023823 8 284 0.0 0.0 0.00 1.55 1.09 77 1012.7
20260507022816 8 284 0.0 0.0 0.00 1.55 1.09 77 1012.5
20260507021836 9 284 0.0 0.0 0.00 1.55 1.09 77 1012.6
20260507020827 9 283 0.0 0.0 0.00 1.55 1.09 76 1012.4
20260507015831 10 284 0.0 0.0 0.00 1.68 1.09 74 1012.4
20260507014835 10 284 0.0 0.0 0.00 1.68 1.09 73 1012.3
20260507013828 10 284 0.0 0.0 0.00 1.68 1.09 71 1012.2
20260507012907 11 284 0.0 0.0 0.00 1.68 1.09 70 1012.3
20260507011835 11 284 0.0 0.0 0.00 1.68 1.09 68 1012.0
20260507010828 12 283 0.0 3.2 0.00 1.68 1.09 63 1011.9
20260507005831 12 284 1.6 4.8 0.00 1.68 1.09 62 1011.8
20260507004834 12 283 1.6 4.8 0.00 1.68 1.09 60 1011.8
20260507003829 12 300 3.2 8.0 0.00 1.68 1.09 59 1011.7
20260507002849 12 296 1.6 12.9 0.00 1.68 1.09 59 1011.8
20260507001842 13 337 3.2 8.0 0.00 1.68 1.09 59 1011.6
20260507000832 13 333 4.8 9.7 0.00 1.68 1.09 58 1011.6
20260506235817 13 318 3.2 11.3 0.00 1.73 1.09 60 1011.5
20260506234900 13 284 4.8 14.5 0.00 1.73 1.09 58 1011.4
20260506233830 13 342 6.4 12.9 0.00 1.73 1.09 58 1011.2
20260506232850 13 303 6.4 12.9 0.00 1.73 1.09 58 1011.1
20260506231839 13 278 1.6 14.5 0.00 1.73 1.09 57 1011.2
20260506230834 13 355 3.2 9.7 0.00 1.73 1.09 56 1010.9
20260506225818 13 325 4.8 12.9 0.00 1.88 1.09 56 1010.6
20260506224824 13 311 3.2 9.7 0.00 1.88 1.09 56 1010.7
20260506223816 13 314 4.8 14.5 0.00 1.88 1.09 56 1010.9
20260506222856 13 338 3.2 12.9 0.00 1.88 1.09 54 1011.0
20260506221853 14 346 4.8 14.5 0.00 1.88 1.09 53 1011.1
20260506220823 14 342 0.0 14.5 0.00 1.88 1.09 55 1011.0
20260506215828 14 283 4.8 12.9 0.00 2.21 1.09 53 1011.2
20260506214853 14 320 6.4 11.3 0.00 2.21 1.09 54 1011.3
20260506213825 15 325 3.2 12.9 0.00 2.21 1.09 52 1011.2
20260506212844 15 335 3.2 9.7 0.00 2.21 1.09 52 1011.2
20260506211839 15 294 6.4 11.3 0.00 2.21 1.09 49 1011.1
20260506210832 15 304 6.4 16.1 0.00 2.21 1.09 49 1011.1
20260506205816 15 290 8.0 17.7 0.00 2.69 1.09 50 1011.0
20260506204840 15 339 6.4 12.9 0.00 2.69 1.09 52 1010.9
20260506203900 15 315 4.8 14.5 0.00 2.69 1.09 55 1010.7
20260506202832 15 321 8.0 16.1 0.00 2.69 1.09 56 1010.9
20260506201825 15 5 6.4 12.9 0.00 2.69 1.09 55 1010.9
20260506200842 15 360 3.2 16.1 0.00 2.69 1.09 56 1010.9
20260506195826 15 289 8.0 17.7 0.00 3.15 1.09 56 1010.9
20260506194850 15 12 6.4 12.9 0.00 3.15 1.09 54 1010.9
20260506193848 15 327 4.8 12.9 0.00 3.15 1.09 54 1010.9
20260506192847 16 300 4.8 9.7 0.00 3.15 1.09 51 1011.0
20260506191839 16 311 4.8 9.7 0.00 3.15 1.09 51 1010.7
20260506190830 16 289 6.4 14.5 0.00 3.15 1.09 51 1010.5
20260506185834 16 5 1.6 12.9 0.00 3.15 1.09 54 1010.4
20260506184818 15 281 3.2 14.5 0.00 3.15 1.09 56 1010.5
20260506183838 15 307 4.8 20.9 0.00 3.15 1.09 55 1010.6
20260506182831 15 292 11.3 20.9 0.00 3.15 1.09 52 1010.6
20260506181910 15 299 6.4 14.5 0.00 3.15 1.09 56 1010.5
20260506180840 15 326 4.8 20.9 0.00 3.15 1.09 56 1010.5
20260506175827 15 10 6.4 16.1 0.00 3.15 1.09 55 1010.6
20260506174831 15 355 3.2 19.3 0.00 3.15 1.09 56 1010.9
20260506173848 14 309 1.6 9.7 0.00 3.15 1.09 61 1010.9
20260506172839 13 355 8.0 16.1 0.00 3.15 1.09 58 1011.0
20260506171831 13 304 4.8 19.3 0.00 3.15 1.09 59 1011.1
20260506170851 13 5 8.0 12.9 0.00 3.15 1.09 62 1011.1
20260506165835 12 282 4.8 17.7 0.00 3.15 1.09 62 1011.3
20260506164858 13 293 8.0 16.1 0.00 3.15 1.09 63 1011.4
20260506163827 12 327 4.8 17.7 0.00 3.15 1.09 64 1011.3
20260506162846 12 339 9.7 19.3 0.00 3.15 1.09 63 1011.3
20260506161839 12 5 9.7 16.1 0.00 3.15 1.09 65 1011.4
20260506160815 12 334 4.8 16.1 0.00 3.15 1.09 67 1011.2